San Antonio, TX

9:17 PM CDT on September 26, 2016 (GMT -0500)
Stinson Municipal

Weather History for KSSF - January, 2013

Change the Weather History Date:

Saturday, January 19, 2013

  Actual Average Record
Temperature  
Mean Temperature 54 °F -  
Max Temperature 68 °F 62 °F 84 °F (2000)
Min Temperature 39 °F 41 °F 28 °F (2003)
Degree Days  
Heating Degree Days 12    
Growing Degree Days 4 (Base 50)    
Moisture  
Dew Point 41 °F    
Average Humidity 71    
Maximum Humidity 100    
Minimum Humidity 37    
Precipitation  
Precipitation 0.00 in - - ()
Sea Level Pressure  
Sea Level Pressure 30.25 in    
Wind  
Wind Speed 3 mph (South)    
Max Wind Speed 14 mph    
Max Gust Speed 17 mph    
Visibility 9 miles    
Events      
Averages and records for this station are not official NWS values.
T = Trace of Precipitation, MM = Missing Value Source: NWS Daily Summary

Daily Weather History Graph

Daily Weather History Graph

Search for Another Location

Airport or City:

Trip Planner

Search our weather history database for the weather conditions in past years. The results will help you decide how hot, cold, wet, or windy it might be!

Date:

Astronomy

Jan. 19, 2013 Rise Set
Actual Time 7:28 AM CST 6:01 PM CST
Civil Twilight 7:02 AM CST 6:26 PM CST
Nautical Twilight 6:33 AM CST 6:55 PM CST
Astronomical Twilight 6:05 AM CST 7:24 PM CST
Moon 12:23 PM CST (1/19) 1:10 AM CST (1/19)
Length of Visible Light 11h 23m
Length of Day
10h 33m
First Quarter, 57% of the Moon is Illuminated
Jan 19
First Quarter
Jan 26
Full
Feb 3
Last Quarter
Feb 10
New
Feb 17
First Quarter

Hourly Weather History & Observations

Time (CST) Temp. Windchill Dew Point Humidity Pressure Visibility Wind Dir Wind Speed Gust Speed Precip Events Conditions
12:53 AM 41.0 °F - 36.0 °F 82% 30.32 in 10.0 mi Calm Calm - N/A   Clear
1:53 AM 41.0 °F - 37.9 °F 89% 30.31 in 10.0 mi Calm Calm - N/A   Clear
2:53 AM 39.9 °F - 37.9 °F 93% 30.30 in 10.0 mi Calm Calm - N/A   Clear
3:53 AM 42.1 °F 40.2 °F 39.9 °F 92% 30.29 in 10.0 mi North 3.5 mph - N/A   Clear
4:53 AM 41.0 °F - 39.0 °F 93% 30.27 in 10.0 mi Calm Calm - N/A   Clear
5:53 AM 39.0 °F 36.8 °F 37.0 °F 93% 30.26 in 7.0 mi ESE 3.5 mph - N/A   Clear
6:53 AM 39.9 °F - 39.0 °F 97% 30.27 in 6.0 mi Calm Calm - N/A   Clear
7:53 AM 39.0 °F - 39.0 °F 100% 30.29 in 4.0 mi Calm Calm - N/A   Clear
8:53 AM 48.0 °F - 45.0 °F 89% 30.31 in 5.0 mi North 3.5 mph - N/A   Clear
9:53 AM 52.0 °F - 46.0 °F 80% 30.33 in 8.0 mi Calm Calm - N/A   Clear
10:53 AM 59.0 °F - 46.9 °F 64% 30.32 in 10.0 mi South 8.1 mph - N/A   Clear
11:53 AM 63.0 °F - 45.0 °F 52% 30.28 in 10.0 mi SSW 13.8 mph 17.3 mph N/A   Clear
12:53 PM 64.9 °F - 43.0 °F 45% 30.24 in 10.0 mi SW 13.8 mph 17.3 mph N/A   Clear
1:53 PM 64.9 °F - 43.0 °F 45% 30.20 in 10.0 mi South 10.4 mph - N/A   Clear
2:53 PM 66.9 °F - 42.1 °F 40% 30.18 in 10.0 mi South 6.9 mph - N/A   Clear
3:53 PM 68.0 °F - 41.0 °F 37% 30.16 in 10.0 mi SSW 6.9 mph - N/A   Clear
4:53 PM 66.9 °F - 39.9 °F 37% 30.16 in 10.0 mi South 6.9 mph - N/A   Clear
5:53 PM 66.0 °F - 39.9 °F 38% 30.16 in 10.0 mi Calm Calm - N/A   Clear
6:53 PM 55.9 °F - 42.1 °F 60% 30.18 in 10.0 mi Calm Calm - N/A   Clear
7:53 PM 52.0 °F - 43.0 °F 71% 30.21 in 10.0 mi Calm Calm - N/A   Clear
8:53 PM 48.9 °F - 42.1 °F 77% 30.22 in 10.0 mi Calm Calm - N/A   Clear
9:53 PM 46.9 °F - 42.1 °F 83% 30.23 in 9.0 mi Calm Calm - N/A   Clear